Beaumont, TX

4:40 AM CDT on April 21, 2018 (GMT -0500)
Southeast Texas Regional

Weather History for KBPT - May, 2012

Change the Weather History Date:

Friday, May 11, 2012

  Actual Average Record
Temperature  
Mean Temperature 73 °F 75 °F  
Max Temperature 79 °F 84 °F 93 °F (1902)
Min Temperature 66 °F 66 °F 49 °F (1981)
Degree Days  
Heating Degree Days 0 0  
Month to date heating degree days 0 0  
Since 1 July heating degree days 866 1400  
Cooling Degree Days 8 10  
Month to date cooling degree days 129 96  
Year to date cooling degree days 586 323  
Growing Degree Days 22 (Base 50)    
Moisture  
Dew Point 67 °F    
Average Humidity 85    
Maximum Humidity 100    
Minimum Humidity 69    
Precipitation  
Precipitation 1.45 in 0.17 in 3.93 in (2004)
Month to date precipitation 1.91 1.86  
Year to date precipitation 27.15 17.44  
Snow  
Snow 0.00 in 0.00 in 0.00 in ()
Month to date snowfall 0.0 0.0  
Since 1 July snowfall 0.0 T  
Snow Depth 0.00 in    
Sea Level Pressure  
Sea Level Pressure 29.87 in    
Wind  
Wind Speed 13 mph (East)    
Max Wind Speed 39 mph    
Max Gust Speed 46 mph    
Visibility 8 miles    
Events Rain , Thunderstorm    
T = Trace of Precipitation, MM = Missing Value Source: NWS Daily Summary

Daily Weather History Graph

Daily Weather History Graph

Search for Another Location

Airport or City:

Astronomy

May. 11, 2012 Rise Set
Actual Time 6:25 AM CDT 8:00 PM CDT
Civil Twilight 5:59 AM CDT 8:26 PM CDT
Nautical Twilight 5:28 AM CDT 8:57 PM CDT
Astronomical Twilight 4:55 AM CDT 9:30 PM CDT
Moon 12:43 AM CDT (5/11) 11:54 AM CDT (5/11)
Length of Visible Light 14h 27m
Length of Day
13h 35m
Waning Gibbous, 63% of the Moon is Illuminated
May 11
Waning Gibbous
May 12
Last Quarter
May 20
New
May 28
First Quarter
Jun 4
Full

Hourly Weather History & Observations

Time (CDT) Temp. Dew Point Humidity Pressure Visibility Wind Dir Wind Speed Gust Speed Precip Events Conditions
12:53 AM 75.0 °F 66.9 °F 76% 29.87 in 10.0 mi ESE 8.1 mph - N/A   Scattered Clouds
1:53 AM 75.9 °F 68.0 °F 76% 29.86 in 10.0 mi East 9.2 mph - N/A   Overcast
2:53 AM 73.0 °F 69.1 °F 87% 29.83 in 10.0 mi East 9.2 mph - 0.03 in   Overcast
3:15 AM 73.4 °F 69.8 °F 88% 29.82 in 10.0 mi East 9.2 mph - N/A Thunderstorm Scattered Clouds
3:53 AM 73.0 °F 70.0 °F 90% 29.82 in 7.0 mi ENE 10.4 mph - 0.03 in Rain , Thunderstorm Light Thunderstorms and Rain
4:42 AM 73.4 °F 71.6 °F 94% 29.82 in 2.5 mi ENE 5.8 mph - 0.19 in Rain , Thunderstorm Heavy Thunderstorms and Rain
4:50 AM 71.6 °F 71.6 °F 100% 29.82 in 1.5 mi East 6.9 mph - 0.39 in Rain , Thunderstorm Thunderstorms and Rain
4:53 AM 72.0 °F 71.1 °F 97% 29.82 in 2.5 mi East 9.2 mph - 0.41 in Rain , Thunderstorm Thunderstorms and Rain
5:00 AM 71.6 °F 69.8 °F 94% 29.81 in 5.0 mi ENE 11.5 mph - 0.02 in Rain , Thunderstorm Thunderstorms and Rain
5:19 AM 71.6 °F 69.8 °F 94% 29.80 in 5.0 mi NE 10.4 mph - 0.08 in Rain , Thunderstorm Rain
5:40 AM 71.6 °F 69.8 °F 94% 29.82 in 3.0 mi ENE 10.4 mph - 0.17 in Rain , Thunderstorm Thunderstorms and Rain
5:46 AM 71.6 °F 69.8 °F 94% 29.83 in 3.0 mi Variable 6.9 mph 19.6 mph 0.19 in Rain Heavy Rain
5:48 AM 69.8 °F 69.8 °F 100% 29.83 in 2.5 mi ESE 15.0 mph 19.6 mph 0.20 in Rain Heavy Rain
5:53 AM 69.1 °F 68.0 °F 96% 29.83 in 1.2 mi SE 11.5 mph 19.6 mph 0.24 in Rain Heavy Rain
5:59 AM 68.0 °F 66.2 °F 94% 29.83 in 1.5 mi SSE 8.1 mph - 0.19 in Rain Heavy Rain
6:05 AM 68.0 °F 66.2 °F 94% 29.84 in 3.0 mi South 6.9 mph - 0.26 in Rain Heavy Rain
6:46 AM 66.2 °F 64.4 °F 94% 29.88 in 2.5 mi NNW 13.8 mph 19.6 mph 0.43 in Rain Heavy Rain
6:53 AM 66.9 °F 64.0 °F 90% 29.88 in 2.0 mi NW 12.7 mph - 0.54 in Rain Heavy Rain
6:58 AM 66.2 °F 64.4 °F 94% 29.87 in 3.0 mi North 10.4 mph - 0.05 in Rain Heavy Rain
7:53 AM 66.9 °F 63.0 °F 87% 29.78 in 10.0 mi NE 31.1 mph 41.4 mph 0.19 in Rain Light Rain
8:53 AM 68.0 °F 64.0 °F 87% 29.90 in 10.0 mi East 8.1 mph - 0.01 in   Mostly Cloudy
9:04 AM 69.8 °F 64.4 °F 83% 29.91 in 10.0 mi ENE 10.4 mph - N/A   Overcast
9:12 AM 68.0 °F 66.2 °F 94% 29.91 in 10.0 mi ENE 16.1 mph 20.7 mph 0.00 in Rain Light Rain
9:53 AM 68.0 °F 66.0 °F 93% 29.94 in 10.0 mi East 11.5 mph 24.2 mph 0.00 in Rain Light Rain
10:53 AM 68.0 °F 64.9 °F 90% 29.86 in 10.0 mi ENE 17.3 mph 33.4 mph 0.00 in   Overcast
11:20 AM 68.0 °F 64.4 °F 88% 29.95 in 10.0 mi ESE 5.8 mph - N/A   Overcast
11:53 AM 71.1 °F 66.9 °F 87% 29.93 in 10.0 mi East 15.0 mph - 0.00 in Rain Light Rain
12:35 PM 73.4 °F 68.0 °F 83% 29.91 in 10.0 mi East 16.1 mph - 0.00 in   Mostly Cloudy
12:53 PM 73.9 °F 68.0 °F 82% 29.91 in 10.0 mi East 13.8 mph - 0.00 in   Mostly Cloudy
1:45 PM 77.0 °F 69.8 °F 78% 29.90 in 10.0 mi East 16.1 mph 21.9 mph N/A   Overcast
1:53 PM 75.9 °F 69.1 °F 79% 29.90 in 10.0 mi East 16.1 mph 25.3 mph N/A   Overcast
2:53 PM 79.0 °F 69.1 °F 72% 29.89 in 10.0 mi East 16.1 mph - N/A   Mostly Cloudy
3:22 PM 77.0 °F 68.0 °F 74% 29.89 in 10.0 mi East 11.5 mph - N/A   Mostly Cloudy
3:53 PM 78.1 °F 68.0 °F 71% 29.89 in 10.0 mi East 11.5 mph - N/A   Mostly Cloudy
4:12 PM 78.8 °F 68.0 °F 69% 29.89 in 10.0 mi East 13.8 mph - N/A   Mostly Cloudy
4:22 PM 78.8 °F 68.0 °F 69% 29.89 in 10.0 mi East 12.7 mph - N/A   Mostly Cloudy
4:31 PM 78.8 °F 68.0 °F 69% 29.90 in 10.0 mi East 13.8 mph - N/A   Mostly Cloudy
4:53 PM 78.1 °F 68.0 °F 71% 29.89 in 10.0 mi ENE 13.8 mph - N/A   Mostly Cloudy
5:33 PM 77.0 °F 66.2 °F 69% 29.88 in 10.0 mi ENE 13.8 mph 21.9 mph N/A   Mostly Cloudy
5:46 PM 77.0 °F 66.2 °F 69% 29.87 in 10.0 mi ENE 13.8 mph - N/A   Scattered Clouds
5:53 PM 77.0 °F 66.9 °F 71% 29.87 in 10.0 mi ENE 12.7 mph - N/A   Mostly Cloudy
6:53 PM 75.0 °F 66.0 °F 73% 29.87 in 10.0 mi East 9.2 mph - N/A   Mostly Cloudy
7:53 PM 73.9 °F 66.0 °F 76% 29.89 in 10.0 mi East 11.5 mph - N/A   Mostly Cloudy
8:53 PM 73.0 °F 64.9 °F 76% 29.91 in 10.0 mi East 12.7 mph - N/A   Overcast
9:53 PM 72.0 °F 66.0 °F 81% 29.92 in 10.0 mi East 11.5 mph - N/A   Clear
10:38 PM 71.6 °F 66.2 °F 83% 29.94 in 10.0 mi East 12.7 mph - N/A   Overcast
10:53 PM 72.0 °F 66.9 °F 84% 29.94 in 10.0 mi ENE 9.2 mph - N/A   Overcast
11:53 PM 72.0 °F 68.0 °F 87% 29.94 in 10.0 mi East 12.7 mph - N/A   Overcast